| time (UTC) | temp F | wind direction | speed knots | gust knots | rain 1hr in | rain 24hr in | rain mn in | humidity % | barometer mb |
| 20260508022124 | 47 | 315 | 0.0 | 0.0 | 0.00 | 0.00 | 0.00 | 54 | 1119.0 |
| 20260508021124 | 48 | 315 | 0.0 | 0.0 | 0.00 | 0.00 | 0.00 | 53 | 1119.0 |
| 20260508015225 | 50 | 315 | 0.0 | 0.0 | 0.00 | 0.00 | 0.00 | 51 | 1118.9 |
| 20260508014226 | 50 | 337 | 0.0 | 0.0 | 0.00 | 0.00 | 0.00 | 50 | 1118.7 |
| 20260508013225 | 50 | 337 | 0.0 | 0.0 | 0.00 | 0.00 | 0.00 | 49 | 1118.7 |
| 20260508011322 | 52 | 294 | 0.9 | 3.5 | 0.00 | 0.00 | 0.00 | 48 | 1118.3 |
| 20260508010323 | 52 | 314 | 0.9 | 4.3 | 0.00 | 0.00 | 0.00 | 48 | 1118.3 |
| 20260508005325 | 52 | 322 | 1.7 | 4.3 | 0.00 | 0.00 | 0.00 | 47 | 1118.3 |
| 20260508004325 | 53 | 294 | 0.0 | 6.1 | 0.00 | 0.00 | 0.00 | 48 | 1118.1 |
| 20260508003424 | 53 | 292 | 0.0 | 0.0 | 0.00 | 0.00 | 0.00 | 46 | 1117.9 |
| 20260508002425 | 54 | 298 | 1.7 | 3.5 | 0.00 | 0.00 | 0.00 | 45 | 1117.5 |
| 20260508001524 | 54 | 301 | 1.7 | 4.3 | 0.00 | 0.00 | 0.00 | 45 | 1117.5 |
| 20260508000527 | 55 | 329 | 0.0 | 3.5 | 0.00 | 0.00 | 0.00 | 43 | 1117.1 |
| 20260507235623 | 56 | 335 | 1.7 | 3.5 | 0.00 | 0.00 | 0.00 | 43 | 1117.1 |
| 20260507234723 | 57 | 355 | 1.7 | 6.1 | 0.00 | 0.00 | 0.00 | 42 | 1117.1 |
| 20260507233725 | 58 | 321 | 0.9 | 2.6 | 0.00 | 0.00 | 0.00 | 41 | 1117.0 |
| 20260507232726 | 59 | 312 | 1.7 | 4.3 | 0.00 | 0.00 | 0.00 | 40 | 1117.1 |
| 20260507230725 | 59 | 303 | 1.7 | 5.2 | 0.00 | 0.00 | 0.00 | 42 | 1116.8 |
| 20260507224823 | 58 | 266 | 0.9 | 2.6 | 0.00 | 0.00 | 0.00 | 41 | 1116.4 |
| 20260507222923 | 59 | 314 | 0.9 | 5.2 | 0.00 | 0.00 | 0.00 | 39 | 1116.4 |
| 20260507220924 | 62 | 320 | 0.9 | 3.5 | 0.00 | 0.00 | 0.00 | 40 | 1116.4 |
| 20260507215922 | 62 | 145 | 0.0 | 0.9 | 0.00 | 0.00 | 0.00 | 41 | 1116.0 |
| 20260507214926 | 61 | 318 | 1.7 | 5.2 | 0.00 | 0.00 | 0.00 | 42 | 1116.0 |
| 20260507213025 | 61 | 294 | 0.0 | 0.9 | 0.00 | 0.00 | 0.00 | 37 | 1115.6 |
| 20260507212026 | 61 | 290 | 2.6 | 6.1 | 0.00 | 0.00 | 0.00 | 37 | 1116.0 |
| 20260507211026 | 61 | 275 | 0.9 | 4.3 | 0.00 | 0.00 | 0.00 | 35 | 1115.6 |
| 20260507210024 | 62 | 310 | 1.7 | 5.2 | 0.00 | 0.00 | 0.00 | 35 | 1115.6 |
| 20260507205024 | 62 | 289 | 2.6 | 6.1 | 0.00 | 0.00 | 0.00 | 37 | 1115.4 |
| 20260507204024 | 62 | 305 | 1.7 | 4.3 | 0.00 | 0.00 | 0.00 | 38 | 1115.6 |
| 20260507203024 | 61 | 283 | 0.0 | 2.6 | 0.00 | 0.00 | 0.00 | 38 | 1115.6 |
| 20260507202122 | 60 | 310 | 4.3 | 11.3 | 0.00 | 0.00 | 0.00 | 39 | 1116.0 |
| 20260507201125 | 60 | 267 | 1.7 | 5.2 | 0.00 | 0.00 | 0.00 | 38 | 1115.6 |
| 20260507200223 | 61 | 303 | 2.6 | 5.2 | 0.00 | 0.00 | 0.00 | 38 | 1115.8 |
| 20260507195224 | 61 | 316 | 1.7 | 4.3 | 0.00 | 0.00 | 0.00 | 39 | 1116.0 |
| 20260507194224 | 62 | 233 | 0.0 | 0.9 | 0.00 | 0.00 | 0.00 | 38 | 1116.0 |
| 20260507192225 | 63 | 300 | 4.3 | 7.8 | 0.00 | 0.00 | 0.00 | 40 | 1116.0 |
| 20260507191322 | 63 | 348 | 0.9 | 3.5 | 0.00 | 0.00 | 0.00 | 39 | 1116.4 |
| 20260507190325 | 62 | 261 | 0.9 | 3.5 | 0.00 | 0.00 | 0.00 | 41 | 1116.4 |
| 20260507184522 | 61 | 297 | 1.7 | 6.1 | 0.00 | 0.00 | 0.00 | 45 | 1116.4 |
| 20260507183525 | 60 | 322 | 3.5 | 6.1 | 0.00 | 0.00 | 0.00 | 46 | 1116.4 |
| 20260507182525 | 59 | 269 | 0.0 | 1.7 | 0.00 | 0.00 | 0.00 | 45 | 1116.6 |
| 20260507181625 | 59 | 268 | 0.9 | 2.6 | 0.00 | 0.00 | 0.00 | 44 | 1116.5 |
| 20260507175624 | 58 | 269 | 1.7 | 4.3 | 0.00 | 0.00 | 0.00 | 46 | 1116.8 |
| 20260507174623 | 59 | 310 | 0.9 | 3.5 | 0.00 | 0.00 | 0.00 | 46 | 1117.1 |
| 20260507173625 | 59 | 200 | 0.9 | 3.5 | 0.00 | 0.00 | 0.00 | 49 | 1117.1 |
| 20260507172624 | 59 | 318 | 1.7 | 5.2 | 0.00 | 0.00 | 0.00 | 49 | 1117.1 |
| 20260507171624 | 58 | 310 | 0.0 | 1.7 | 0.00 | 0.00 | 0.00 | 48 | 1117.3 |
| 20260507165624 | 58 | 250 | 1.7 | 6.1 | 0.00 | 0.00 | 0.00 | 46 | 1117.5 |
| 20260507164626 | 58 | 266 | 2.6 | 4.3 | 0.00 | 0.00 | 0.00 | 46 | 1117.5 |
| 20260507163723 | 60 | 331 | 0.0 | 1.7 | 0.00 | 0.00 | 0.00 | 46 | 1117.5 |
| 20260507162725 | 60 | 290 | 1.7 | 3.5 | 0.00 | 0.00 | 0.00 | 49 | 1117.5 |
| 20260507162626 | 60 | 307 | 1.7 | 7.0 | 0.00 | 0.00 | 0.00 | 49 | 1117.5 |
| 20260507161724 | 61 | 234 | 0.9 | 2.6 | 0.00 | 0.01 | 0.00 | 51 | 1117.7 |
| 20260507160724 | 60 | 247 | 0.9 | 6.1 | 0.00 | 0.01 | 0.00 | 51 | 1117.7 |
| 20260507155724 | 59 | 262 | 0.9 | 4.3 | 0.00 | 0.01 | 0.00 | 50 | 1117.9 |
| 20260507154723 | 58 | 279 | 1.7 | 3.5 | 0.00 | 0.01 | 0.00 | 50 | 1118.3 |
| 20260507152823 | 58 | 314 | 1.7 | 4.3 | 0.00 | 0.01 | 0.00 | 48 | 1118.3 |
| 20260507150825 | 59 | 287 | 2.6 | 3.5 | 0.00 | 0.01 | 0.00 | 53 | 1118.3 |
| 20260507144824 | 57 | 33 | 0.0 | 1.7 | 0.00 | 0.01 | 0.00 | 55 | 1118.8 |
| 20260507143825 | 56 | 276 | 0.0 | 2.6 | 0.00 | 0.01 | 0.00 | 52 | 1119.0 |
| 20260507142825 | 58 | 331 | 0.0 | 0.9 | 0.00 | 0.01 | 0.00 | 57 | 1119.0 |
| 20260507141824 | 57 | 281 | 1.7 | 6.1 | 0.00 | 0.01 | 0.00 | 60 | 1119.0 |
| 20260507135924 | 55 | 236 | 0.9 | 5.2 | 0.00 | 0.01 | 0.00 | 62 | 1119.4 |
| 20260507135022 | 55 | 211 | 0.9 | 2.6 | 0.00 | 0.01 | 0.00 | 64 | 1119.4 |
| 20260507134023 | 54 | 337 | 0.0 | 1.7 | 0.00 | 0.02 | 0.00 | 66 | 1119.6 |
| 20260507133025 | 54 | 339 | 2.6 | 4.3 | 0.00 | 0.03 | 0.00 | 66 | 1119.8 |
| 20260507132026 | 55 | 317 | 0.9 | 1.7 | 0.00 | 0.03 | 0.00 | 74 | 1119.8 |
| 20260507131025 | 53 | 55 | 0.0 | 0.0 | 0.00 | 0.04 | 0.00 | 80 | 1119.8 |
| 20260507130025 | 53 | 180 | 0.0 | 1.7 | 0.00 | 0.04 | 0.00 | 87 | 1119.8 |
| 20260507125025 | 54 | 247 | 0.0 | 0.0 | 0.00 | 0.04 | 0.00 | 92 | 1119.8 |
| 20260507123024 | 51 | 157 | 0.0 | 0.0 | 0.00 | 0.05 | 0.00 | 94 | 1119.8 |
| 20260507122024 | 48 | 157 | 0.0 | 0.0 | 0.00 | 0.05 | 0.00 | 93 | 1119.6 |
| 20260507121024 | 45 | 157 | 0.0 | 0.0 | 0.00 | 0.06 | 0.00 | 93 | 1119.4 |
| 20260507120025 | 43 | 135 | 0.0 | 0.0 | 0.00 | 0.07 | 0.00 | 92 | 1119.0 |
| 20260507114025 | 42 | 202 | 0.0 | 0.0 | 0.00 | 0.10 | 0.00 | 92 | 1118.7 |
| 20260507113024 | 40 | 202 | 0.0 | 0.0 | 0.00 | 0.10 | 0.00 | 91 | 1118.7 |
| 20260507112024 | 41 | 202 | 0.0 | 0.0 | 0.00 | 0.10 | 0.00 | 92 | 1118.3 |
| 20260507111123 | 40 | 202 | 0.0 | 0.0 | 0.00 | 0.10 | 0.00 | 92 | 1118.3 |
| 20260507110125 | 39 | 202 | 0.0 | 0.0 | 0.00 | 0.11 | 0.00 | 92 | 1118.3 |
| 20260507105222 | 39 | 202 | 0.0 | 0.0 | 0.00 | 0.11 | 0.00 | 92 | 1118.3 |
| 20260507104225 | 39 | 202 | 0.0 | 0.0 | 0.00 | 0.13 | 0.00 | 92 | 1118.3 |
| 20260507103223 | 39 | 202 | 0.0 | 0.0 | 0.00 | 0.15 | 0.00 | 92 | 1117.9 |
| 20260507102223 | 39 | 202 | 0.0 | 0.0 | 0.00 | 0.16 | 0.00 | 91 | 1117.9 |
| 20260507101225 | 39 | 202 | 0.0 | 0.0 | 0.00 | 0.18 | 0.00 | 91 | 1117.9 |
| 20260507100223 | 39 | 202 | 0.0 | 0.0 | 0.00 | 0.21 | 0.00 | 90 | 1117.9 |
| 20260507094324 | 39 | 202 | 0.0 | 0.0 | 0.00 | 0.26 | 0.00 | 90 | 1117.9 |
| 20260507092324 | 40 | 202 | 0.0 | 0.0 | 0.00 | 0.28 | 0.00 | 89 | 1117.9 |
| 20260507091324 | 40 | 202 | 0.0 | 0.0 | 0.00 | 0.30 | 0.00 | 89 | 1118.0 |
| 20260507090326 | 40 | 202 | 0.0 | 0.0 | 0.00 | 0.31 | 0.00 | 88 | 1118.1 |
| 20260507085424 | 40 | 202 | 0.0 | 0.0 | 0.00 | 0.32 | 0.00 | 87 | 1117.9 |
| 20260507084425 | 40 | 202 | 0.0 | 0.0 | 0.00 | 0.35 | 0.00 | 86 | 1118.3 |
| 20260507083523 | 40 | 202 | 0.0 | 0.0 | 0.00 | 0.36 | 0.00 | 86 | 1118.1 |
| 20260507081623 | 41 | 202 | 0.0 | 0.0 | 0.00 | 0.40 | 0.00 | 84 | 1118.3 |
| 20260507075625 | 41 | 202 | 0.0 | 0.0 | 0.00 | 0.43 | 0.00 | 82 | 1118.3 |
| 20260507074625 | 41 | 202 | 0.0 | 0.0 | 0.00 | 0.43 | 0.00 | 81 | 1118.3 |
| 20260507073624 | 41 | 202 | 0.0 | 0.0 | 0.00 | 0.43 | 0.00 | 80 | 1118.3 |
| 20260507071724 | 41 | 202 | 0.0 | 0.0 | 0.00 | 0.43 | 0.00 | 78 | 1118.3 |
| 20260507065824 | 42 | 202 | 0.0 | 0.0 | 0.00 | 0.43 | 0.00 | 75 | 1118.3 |
| 20260507064825 | 44 | 202 | 0.0 | 0.0 | 0.00 | 0.44 | 0.00 | 74 | 1118.7 |
| 20260507063825 | 45 | 202 | 0.0 | 0.0 | 0.00 | 0.44 | 0.00 | 73 | 1118.7 |
| 20260507062826 | 46 | 202 | 0.0 | 0.0 | 0.00 | 0.46 | 0.00 | 72 | 1118.7 |
| 20260507061924 | 46 | 202 | 0.0 | 0.0 | 0.00 | 0.47 | 0.00 | 72 | 1118.7 |
| 20260507060925 | 46 | 202 | 0.0 | 0.0 | 0.00 | 0.47 | 0.00 | 71 | 1119.0 |
| 20260507055923 | 47 | 202 | 0.0 | 0.0 | 0.00 | 0.48 | 0.00 | 71 | 1119.0 |
| 20260507054925 | 47 | 202 | 0.0 | 0.0 | 0.00 | 0.49 | 0.00 | 71 | 1119.0 |
| 20260507053924 | 47 | 202 | 0.0 | 0.0 | 0.00 | 0.49 | 0.00 | 70 | 1119.4 |
| 20260507052925 | 47 | 202 | 0.0 | 0.0 | 0.00 | 0.49 | 0.00 | 69 | 1119.4 |
| 20260507051925 | 47 | 202 | 0.0 | 0.0 | 0.00 | 0.50 | 0.00 | 68 | 1119.5 |
| 20260507050924 | 47 | 202 | 0.0 | 0.0 | 0.00 | 0.51 | 0.00 | 68 | 1119.7 |
| 20260507044223 | 48 | 202 | 0.0 | 0.0 | 0.00 | 0.53 | 0.00 | 68 | 1119.4 |
| 20260507043223 | 48 | 202 | 0.0 | 0.0 | 0.00 | 0.53 | 0.00 | 68 | 1119.4 |
| 20260507042226 | 48 | 202 | 0.0 | 0.0 | 0.00 | 0.53 | 0.00 | 68 | 1119.8 |
| 20260507041223 | 48 | 202 | 0.0 | 0.0 | 0.00 | 0.53 | 0.00 | 68 | 1119.7 |
| 20260507040226 | 49 | 202 | 0.0 | 0.0 | 0.00 | 0.53 | 0.00 | 68 | 1119.4 |
| 20260507035321 | 49 | 202 | 0.0 | 0.0 | 0.00 | 0.53 | 0.53 | 68 | 1119.4 |
| 20260507034419 | 49 | 202 | 0.0 | 0.0 | 0.00 | 0.53 | 0.53 | 67 | 1119.4 |
| 20260507032521 | 48 | 202 | 0.0 | 0.0 | 0.00 | 0.53 | 0.53 | 66 | 1119.4 |
| 20260507031522 | 49 | 202 | 0.0 | 0.0 | 0.00 | 0.53 | 0.53 | 67 | 1119.2 |
| 20260507025522 | 49 | 202 | 0.0 | 0.0 | 0.00 | 0.53 | 0.53 | 67 | 1119.0 |
| 20260507024620 | 49 | 202 | 0.0 | 0.0 | 0.00 | 0.53 | 0.53 | 67 | 1119.0 |
| 20260507023719 | 50 | 202 | 0.0 | 0.0 | 0.00 | 0.53 | 0.53 | 68 | 1119.0 |